Location: ?????????
(38.5999°N, 22.7695°E)
Time: 08:57:37
(UTC+00:00)

Cosmos 2154 Rocket - Pass Details

Date: 23 August 2024
Orbit: 964 x 997 km, 82.9° (Epoch: 07 September)

Event Time Altitude Azimuth Distance (km) Brightness Sun altitude
Rises 02:55:40 0° 344° (NNW) 3,663 7.1 -10.9°
Reaches altitude 10° 02:58:20 10° 337° (NNW) 2,710 6.3 -10.4°
Maximum altitude 03:03:57 38° 271° (W) 1,433 4.5 -9.4°
Drops below altitude 10° 03:09:34 10° 206° (SSW) 2,696 5.9 -8.4°
Sets 03:12:14 0° 198° (SSW) 3,641 6.6 -7.9°
